| time (UTC) | temp F | wind direction | speed knots | gust knots | rain 1hr in | rain 24hr in | rain mn in | humidity % | barometer mb |
| 20260504231542 | 75 | 169 | 0.0 | 2.6 | 0.00 | 0.00 | 0.00 | 35 | 1013.4 |
| 20260504230042 | 76 | 165 | 1.7 | 4.3 | 0.00 | 0.00 | 0.00 | 34 | 1013.4 |
| 20260504224541 | 77 | 44 | 1.7 | 7.8 | 0.00 | 0.00 | 0.00 | 33 | 1013.5 |
| 20260504223057 | 77 | 217 | 0.9 | 3.5 | 0.00 | 0.00 | 0.00 | 34 | 1013.5 |
| 20260504221540 | 77 | 175 | 1.7 | 7.0 | 0.00 | 0.00 | 0.00 | 34 | 1013.5 |
| 20260504220039 | 78 | 269 | 0.9 | 5.2 | 0.00 | 0.00 | 0.00 | 33 | 1013.5 |
| 20260504214537 | 78 | 252 | 1.7 | 6.1 | 0.00 | 0.00 | 0.00 | 34 | 1013.5 |
| 20260504213135 | 78 | 196 | 2.6 | 8.7 | 0.00 | 0.00 | 0.00 | 34 | 1013.4 |
| 20260504211549 | 78 | 109 | 0.9 | 8.7 | 0.00 | 0.00 | 0.00 | 34 | 1013.5 |
| 20260504210036 | 78 | 184 | 1.7 | 7.0 | 0.00 | 0.00 | 0.00 | 35 | 1013.6 |
| 20260504204532 | 78 | 180 | 3.5 | 7.8 | 0.00 | 0.00 | 0.00 | 33 | 1013.6 |
| 20260504203029 | 78 | 120 | 1.7 | 7.8 | 0.00 | 0.00 | 0.00 | 32 | 1013.8 |
| 20260504201526 | 78 | 190 | 0.9 | 7.8 | 0.00 | 0.00 | 0.00 | 34 | 1014.0 |
| 20260504200025 | 78 | 267 | 1.7 | 7.8 | 0.00 | 0.00 | 0.00 | 34 | 1014.2 |
| 20260504194522 | 78 | 187 | 2.6 | 7.0 | 0.00 | 0.00 | 0.00 | 33 | 1014.4 |
| 20260504193021 | 78 | 278 | 1.7 | 7.8 | 0.00 | 0.00 | 0.00 | 33 | 1014.6 |
| 20260504191517 | 77 | 180 | 1.7 | 5.2 | 0.00 | 0.00 | 0.00 | 34 | 1014.7 |
| 20260504190014 | 77 | 155 | 2.6 | 6.1 | 0.00 | 0.00 | 0.00 | 34 | 1014.9 |
| 20260504184513 | 77 | 213 | 1.7 | 7.8 | 0.00 | 0.00 | 0.00 | 34 | 1015.0 |
| 20260504183011 | 77 | 265 | 0.9 | 7.8 | 0.00 | 0.00 | 0.00 | 34 | 1015.0 |
| 20260504181508 | 76 | 236 | 1.7 | 4.3 | 0.00 | 0.00 | 0.00 | 34 | 1015.4 |
| 20260504180006 | 75 | 144 | 3.5 | 7.8 | 0.00 | 0.00 | 0.00 | 34 | 1015.5 |
| 20260504174503 | 75 | 168 | 1.7 | 6.1 | 0.00 | 0.00 | 0.00 | 34 | 1015.6 |
| 20260504173101 | 74 | 271 | 2.6 | 7.0 | 0.00 | 0.00 | 0.00 | 33 | 1015.7 |
| 20260504171558 | 74 | 227 | 3.5 | 7.8 | 0.00 | 0.00 | 0.00 | 33 | 1015.8 |
| 20260504081531 | 44 | 178 | 0.0 | 0.9 | 0.00 | 0.00 | 0.00 | 78 | 1017.2 |
| 20260504050014 | 46 | 178 | 0.0 | 0.9 | 0.00 | 0.00 | 0.00 | 69 | 1017.5 |
| 20260504044514 | 46 | 178 | 0.0 | 0.9 | 0.00 | 0.00 | 0.00 | 69 | 1017.5 |
| 20260504043013 | 46 | 178 | 0.0 | 0.9 | 0.00 | 0.00 | 0.00 | 68 | 1017.6 |
| 20260504041506 | 47 | 178 | 0.0 | 1.7 | 0.00 | 0.00 | 0.00 | 68 | 1017.6 |
| 20260504040137 | 46 | 178 | 0.0 | 0.9 | 0.00 | 0.00 | 0.00 | 69 | 1017.7 |
| 20260504034502 | 46 | 178 | 0.0 | 0.9 | 0.00 | 0.00 | 0.00 | 69 | 1017.7 |
| 20260504033001 | 45 | 178 | 0.0 | 0.0 | 0.00 | 0.00 | 0.00 | 68 | 1017.6 |
| 20260504031501 | 46 | 178 | 0.0 | 0.0 | 0.00 | 0.00 | 0.00 | 67 | 1017.7 |
| 20260504030001 | 46 | 178 | 0.0 | 0.0 | 0.00 | 0.00 | 0.00 | 66 | 1017.6 |
| 20260504024605 | 46 | 178 | 0.0 | 0.0 | 0.00 | 0.00 | 0.00 | 66 | 1017.5 |
| 20260504023059 | 46 | 178 | 0.0 | 0.0 | 0.00 | 0.00 | 0.00 | 66 | 1017.4 |
| 20260504021559 | 47 | 178 | 0.0 | 0.0 | 0.00 | 0.00 | 0.00 | 67 | 1017.3 |
| 20260504020110 | 47 | 178 | 0.0 | 0.0 | 0.00 | 0.00 | 0.00 | 65 | 1017.0 |
| 20260504014555 | 48 | 178 | 0.0 | 0.0 | 0.00 | 0.00 | 0.00 | 64 | 1017.0 |
| 20260504013057 | 49 | 178 | 0.0 | 0.0 | 0.00 | 0.00 | 0.00 | 63 | 1017.0 |
| 20260504011551 | 50 | 178 | 0.0 | 0.0 | 0.00 | 0.00 | 0.00 | 60 | 1017.0 |
| 20260504010053 | 51 | 178 | 0.0 | 0.0 | 0.00 | 0.00 | 0.00 | 56 | 1016.8 |
| 20260504004548 | 53 | 178 | 0.0 | 0.0 | 0.00 | 0.00 | 0.00 | 54 | 1016.6 |
| 20260504003051 | 55 | 178 | 0.0 | 0.0 | 0.00 | 0.00 | 0.00 | 51 | 1016.4 |
| 20260504001552 | 57 | 178 | 0.0 | 0.0 | 0.00 | 0.00 | 0.00 | 47 | 1016.4 |
| 20260504000050 | 59 | 178 | 0.0 | 0.0 | 0.00 | 0.00 | 0.00 | 45 | 1016.3 |
| 20260503234602 | 61 | 178 | 0.0 | 0.0 | 0.00 | 0.00 | 0.00 | 39 | 1016.3 |
| 20260503233049 | 63 | 178 | 0.0 | 0.9 | 0.00 | 0.00 | 0.00 | 33 | 1016.3 |